EN

Hourly Weather Bolshie Ozeranki

Today, 27 October, Tuesday

Time Temperature Precipitation Wind Pressure Humidity
00:00 +10°C° 0 mm 6 mps 742 mmHg 89%
01:00 +9°C° 0 mm 5 mps 742 mmHg 91%
02:00 +9°C° 0 mm 5 mps 742 mmHg 93%
03:00 +9°C° 0 mm 5 mps 742 mmHg 93%
04:00 +9°C° 0 mm 5 mps 742 mmHg 94%
05:00 +9°C° 0 mm 5 mps 742 mmHg 94%
06:00 +9°C° 0 mm 5 mps 742 mmHg 94%
07:00 +9°C° 0 mm 5 mps 742 mmHg 93%
08:00 +9°C° 0 mm 5 mps 743 mmHg 92%
09:00 +9°C° 0 mm 5 mps 743 mmHg 89%
10:00 +10°C° 0 mm 5 mps 743 mmHg 86%
11:00 +12°C° 0 mm 5 mps 743 mmHg 83%
12:00 +12°C° 0 mm 5 mps 743 mmHg 81%
13:00 +13°C° 0 mm 5 mps 743 mmHg 79%
14:00 +14°C° 0 mm 5 mps 743 mmHg 77%
15:00 +13°C° 0 mm 5 mps 743 mmHg 80%
16:00 +13°C° 0 mm 4 mps 743 mmHg 82%
17:00 +12°C° 0 mm 3 mps 743 mmHg 85%
18:00 +12°C° 0 mm 4 mps 743 mmHg 86%
19:00 +12°C° 0 mm 4 mps 744 mmHg 87%
20:00 +12°C° 0 mm 4 mps 744 mmHg 88%
21:00 +11°C° 0 mm 4 mps 744 mmHg 88%
22:00 +11°C° 0 mm 4 mps 744 mmHg 88%
23:00 +11°C° 0 mm 4 mps 744 mmHg 89%

Tomorrow, 28 October, Wednesday

Time Temperature Precipitation Wind Pressure Humidity
00:00 +11°C° 0 mm 4 mps 744 mmHg 89%
01:00 +11°C° 0 mm 4 mps 744 mmHg 89%
02:00 +10°C° 0 mm 4 mps 745 mmHg 89%
03:00 +10°C° 0 mm 3 mps 744 mmHg 91%
04:00 +10°C° 0 mm 3 mps 744 mmHg 92%
05:00 +9°C° 0 mm 2 mps 744 mmHg 94%
06:00 +9°C° 0 mm 2 mps 745 mmHg 94%
07:00 +9°C° 0 mm 2 mps 745 mmHg 94%
08:00 +9°C° 0 mm 2 mps 745 mmHg 94%
09:00 +10°C° 0 mm 2 mps 746 mmHg 90%
10:00 +13°C° 0 mm 2 mps 746 mmHg 85%
11:00 +14°C° 0 mm 2 mps 746 mmHg 80%
12:00 +14°C° 0 mm 2 mps 746 mmHg 77%
13:00 +14°C° 0 mm 3 mps 746 mmHg 75%
14:00 +16°C° 0 mm 3 mps 746 mmHg 73%
15:00 +14°C° 0 mm 3 mps 745 mmHg 76%
16:00 +14°C° 0 mm 2 mps 745 mmHg 79%
17:00 +14°C° 0 mm 2 mps 745 mmHg 83%
18:00 +13°C° 0 mm 2 mps 745 mmHg 85%
19:00 +12°C° 0 mm 2 mps 746 mmHg 88%
20:00 +11°C° 0 mm 3 mps 746 mmHg 91%
21:00 +12°C° 0 mm 2 mps 746 mmHg 91%
22:00 +10°C° 0 mm 2 mps 746 mmHg 92%
23:00 +10°C° 0 mm 2 mps 746 mmHg 92%

Day after tomorrow, 29 October, Thursday

Time Temperature Precipitation Wind Pressure Humidity
00:00 +10°C° 0 mm 2 mps 746 mmHg 92%
01:00 +12°C° 0 mm 2 mps 746 mmHg 91%
02:00 +12°C° 0 mm 2 mps 746 mmHg 91%
03:00 +10°C° 0 mm 2 mps 745 mmHg 91%
04:00 +10°C° 0 mm 2 mps 745 mmHg 92%
05:00 +10°C° 0 mm 2 mps 745 mmHg 93%
06:00 +10°C° 0 mm 2 mps 745 mmHg 91%
07:00 +10°C° 0 mm 2 mps 745 mmHg 89%
08:00 +10°C° 0 mm 2 mps 745 mmHg 87%
09:00 +10°C° 0 mm 2 mps 745 mmHg 82%
10:00 +11°C° 0 mm 3 mps 745 mmHg 76%
11:00 +12°C° 0 mm 3 mps 745 mmHg 70%
12:00 +12°C° 0 mm 3 mps 745 mmHg 67%
13:00 +13°C° 0 mm 3 mps 745 mmHg 63%
14:00 +14°C° 0 mm 3 mps 745 mmHg 59%
15:00 +13°C° 0 mm 3 mps 744 mmHg 63%
16:00 +13°C° 0 mm 2 mps 744 mmHg 67%
17:00 +12°C° 0 mm 2 mps 744 mmHg 72%
18:00 +12°C° 0 mm 2 mps 744 mmHg 74%
19:00 +12°C° 0 mm 2 mps 744 mmHg 76%
20:00 +10°C° 0 mm 2 mps 744 mmHg 78%
21:00 +10°C° 0 mm 2 mps 744 mmHg 80%
22:00 +10°C° 0 mm 2 mps 744 mmHg 82%
23:00 +10°C° 0 mm 3 mps 744 mmHg 84%

30 October, Friday

Time Temperature Precipitation Wind Pressure Humidity
00:00 +9°C° 0.1 mm 3 mps 744 mmHg 86%
01:00 +9°C° 0.1 mm 3 mps 744 mmHg 88%
02:00 +9°C° 0.1 mm 3 mps 744 mmHg 90%
03:00 +9°C° 0.1 mm 3 mps 745 mmHg 89%
04:00 +9°C° 0.1 mm 3 mps 745 mmHg 89%
05:00 +7°C° 0.1 mm 4 mps 745 mmHg 89%
06:00 +7°C° 0 mm 4 mps 745 mmHg 90%
07:00 +6°C° 0 mm 4 mps 746 mmHg 91%
08:00 +5°C° 0 mm 4 mps 746 mmHg 91%
09:00 +6°C° 0 mm 4 mps 746 mmHg 87%
10:00 +7°C° 0 mm 4 mps 746 mmHg 83%
11:00 +7°C° 0 mm 5 mps 747 mmHg 79%
12:00 +7°C° 0 mm 5 mps 747 mmHg 80%
13:00 +7°C° 0 mm 4 mps 747 mmHg 81%
14:00 +7°C° 0 mm 4 mps 747 mmHg 81%
15:00 +7°C° 0 mm 4 mps 747 mmHg 81%
16:00 +7°C° 0 mm 4 mps 747 mmHg 80%
17:00 +7°C° 0 mm 4 mps 748 mmHg 80%
18:00 +8°C° 0 mm 3 mps 748 mmHg 79%
19:00 +8°C° 0 mm 3 mps 748 mmHg 78%
20:00 +8°C° 0 mm 3 mps 748 mmHg 77%
21:00 +8°C° 0 mm 2 mps 749 mmHg 77%
22:00 +8°C° 0 mm 2 mps 749 mmHg 76%
23:00 +8°C° 0 mm 2 mps 749 mmHg 75%

31 October, Saturday

Time Temperature Precipitation Wind Pressure Humidity
00:00 +8°C° 0 mm 2 mps 749 mmHg 75%
01:00 +8°C° 0 mm 2 mps 749 mmHg 75%
02:00 +8°C° 0 mm 2 mps 749 mmHg 75%
03:00 +7°C° 0 mm 2 mps 750 mmHg 79%
04:00 +7°C° 0 mm 2 mps 750 mmHg 83%
05:00 +6°C° 0 mm 2 mps 750 mmHg 86%
06:00 +6°C° 0 mm 2 mps 750 mmHg 89%
07:00 +5°C° 0 mm 3 mps 751 mmHg 91%
08:00 +5°C° 0 mm 3 mps 751 mmHg 93%
09:00 +7°C° 0 mm 3 mps 751 mmHg 89%
10:00 +7°C° 0 mm 3 mps 752 mmHg 85%
11:00 +8°C° 0 mm 3 mps 752 mmHg 81%
12:00 +8°C° 0 mm 3 mps 752 mmHg 79%
13:00 +9°C° 0 mm 3 mps 752 mmHg 76%
14:00 +9°C° 0 mm 3 mps 753 mmHg 74%
15:00 +8°C° 0 mm 3 mps 753 mmHg 78%
16:00 +8°C° 0 mm 2 mps 753 mmHg 81%
17:00 +7°C° 0 mm 2 mps 753 mmHg 85%
18:00 +7°C° 0 mm 2 mps 753 mmHg 87%
19:00 +6°C° 0 mm 2 mps 754 mmHg 90%
20:00 +6°C° 0 mm 2 mps 754 mmHg 92%
21:00 +6°C° 0 mm 2 mps 754 mmHg 93%
22:00 +5°C° 0 mm 2 mps 754 mmHg 94%
23:00 +5°C° 0 mm 2 mps 754 mmHg 95%

1 November, Sunday

Time Temperature Precipitation Wind Pressure Humidity
00:00 +5°C° 0 mm 2 mps 754 mmHg 95%
01:00 +5°C° 0 mm 2 mps 754 mmHg 95%
02:00 +5°C° 0 mm 2 mps 754 mmHg 95%
03:00 +4°C° 0 mm 2 mps 754 mmHg 96%
04:00 +4°C° 0 mm 2 mps 753 mmHg 96%
05:00 +4°C° 0 mm 2 mps 753 mmHg 96%
06:00 +4°C° 0 mm 2 mps 753 mmHg 96%
07:00 +4°C° 0 mm 2 mps 753 mmHg 96%
08:00 +4°C° 0 mm 2 mps 753 mmHg 96%
09:00 +5°C° 0 mm 2 mps 753 mmHg 89%
10:00 +7°C° 0 mm 2 mps 753 mmHg 83%
11:00 +8°C° 0 mm 2 mps 753 mmHg 77%
12:00 +9°C° 0 mm 2 mps 753 mmHg 75%
13:00 +10°C° 0 mm 2 mps 752 mmHg 72%
14:00 +10°C° 0 mm 2 mps 752 mmHg 69%
15:00 +9°C° 0 mm 2 mps 752 mmHg 75%
16:00 +8°C° 0 mm 2 mps 752 mmHg 80%
17:00 +7°C° 0 mm 2 mps 752 mmHg 86%
18:00 +7°C° 0 mm 2 mps 752 mmHg 87%
19:00 +7°C° 0 mm 2 mps 752 mmHg 88%
20:00 +7°C° 0 mm 2 mps 752 mmHg 89%
21:00 +7°C° 0 mm 2 mps 752 mmHg 89%
22:00 +7°C° 0 mm 2 mps 752 mmHg 88%
23:00 +7°C° 0 mm 2 mps 751 mmHg 88%
Show more